Regional Weather Roundup
Issued by NWS Upton, NY

Current Version | Previous Version | Graphics & Text | Print | Product List | Glossary Off
Versions: 1 2 3 4 5 6 7 8 9 10 11 12 13 14 15 16 17 18 19 20 21 22 23 24 25 26 27 28 29 30 31 32 33 34 35 36 37 38 39 40 41 42 43 44 45 46 47 48 49 50

890
ASUS41 KOKX 210208
RWROKX

REGIONAL WEATHER ROUNDUP
NATIONAL WEATHER SERVICE NEW YORK NY
900 PM EST MON FEB 20 2017

NOTE: "FAIR" INDICATES FEW OR NO CLOUDS BELOW 12,000 FEET WITH NO
SIGNIFICANT WEATHER AND/OR OBSTRUCTIONS TO VISIBILITY.

NYZ071-072-176-178-NJZ106-104-210300-
NEW YORK CITY METRO AREA

CITY           SKY/WX    TMP DP  RH WIND       PRES   REMARKS
Central Park   CLEAR     43  12  28 NE12G20   30.35R
Wall St Helipt NOT AVBL
LaGuardia APRT PTCLDY    44  14  29 NE15      30.33R
Kennedy INTL   PTCLDY    43  11  27 NE18G26   30.34R
Breezy Point     N/A     41 N/A N/A NE10        N/A
Newark/Liberty PTCLDY    41  14  33 N12       30.33R
Teterboro      CLEAR     43  14  31 N8        30.33R
$$

NYZ177-179-078>081-210300-
LONG ISLAND NEW YORK

CITY           SKY/WX    TMP DP  RH WIND       PRES   REMARKS
Jones Beach      N/A     41 N/A N/A N17         N/A
Matinecock PT    N/A     41 N/A N/A NE13        N/A
Farmingdale    CLEAR     40  16  37 N12       30.33R WCI  33
MacArthur/ISP  CLEAR     39  18  42 N9        30.32R WCI  33
Shirley        CLEAR     39  14  36 N9        30.33R WCI  33
Westhampton    CLEAR     39  14  36 N10       30.34R WCI  32
Southampton    NOT AVBL
Bridgehampton  NOT AVBL
East Hampton     N/A     37  17  43 N6        30.33R WCI  32
Montauk          N/A     32  26  78 CALM      30.34R
$$

NYZ052-065-067-210300-
HUDSON VALLEY

CITY           SKY/WX    TMP DP  RH WIND       PRES   REMARKS
White Plains   CLEAR     39  15  37 N10       30.32R WCI  32
Newburgh       CLEAR     36  19  51 NE8       30.36R WCI  29
Montgomery     CLEAR     34  20  56 N5        30.33R WCI  30
Poughkeepsie   CLEAR     32  19  58 CALM      30.35R
Albany         CLEAR     31  13  47 N6        30.39S WCI  25
$$

NJZ001-105-106-008-010-013-015-019>022-104-210300-
NEW JERSEY

CITY           SKY/WX    TMP DP  RH WIND       PRES   REMARKS
Newark/Liberty PTCLDY    41  14  33 N12       30.33R
Teterboro      CLEAR     43  14  31 N8        30.33R
Caldwell       CLEAR     41  13  31 VRB3      30.35R
Somerville     CLEAR     42  12  29 N3        30.31R
Linden         NOT AVBL
Sussex         CLEAR     37  17  44 NE12G17   30.34R WCI  29
Andover          N/A     32  22  66 NE3       30.33R
Trenton        CLEAR     45  10  24 NE6       30.31R
Millville      CLEAR     40  25  55 NE8       30.28R WCI  34
Atlantic City  CLEAR     40  21  46 N3        30.30R
Wrightstown    CLEAR     39  14  35 N9        30.28R WCI  33
Toms River     CLEAR     29  21  72 NE3       30.32R
Belmar         CLEAR     43  14  31 NE12G21   30.33R
$$

PAZ047>061-062-071-210300-
EASTERN PENNSYLVANIA

CITY           SKY/WX    TMP DP  RH WIND       PRES   REMARKS
Philadelphia   CLEAR     48  18  30 NE12G20   30.30R
Allentown      CLEAR     38  13  35 N5        30.31R WCI  34
Scranton       CLEAR     36  16  44 E5        30.31S WCI  32
$$

CTZ002-004>006-009-010-012-RIZ004-006-007-MAZ004-011-015-210300-
SOUTHERN NEW ENGLAND
 IN CT

CITY           SKY/WX    TMP DP  RH WIND       PRES   REMARKS
Bradley INTL   PTCLDY    34  10  37 N7        30.35R WCI  28
Hartford       CLEAR     37  11  34 N8        30.35R WCI  31
Danbury        CLEAR     36   9  32 N8        30.34R WCI  30
Wtrbury/Oxford CLEAR     34  12  40 N9        30.33R WCI  26
Bridgeport     CLEAR     41  14  33 N12       30.34R
Meriden        CLEAR     39   9  29 N9        30.34S WCI  33
New Haven      CLEAR     36  13  38 N8        30.34R WCI  30
Chester          N/A     37   9  30 N7        30.32S WCI  32
Groton         CLEAR     36  13  38 N6        30.33R WCI  31
Wilimantic     CLEAR     32  16  51 CALM      30.35R

 IN RI

CITY           SKY/WX    TMP DP  RH WIND       PRES   REMARKS
Providence     CLEAR     36  14  40 NW5       30.34R WCI  32
Block Island   CLEAR     32  28  85 CALM      30.33R
Westerly       PTCLDY    33  11  39 N3        30.34R
 IN MA

CITY           SKY/WX    TMP DP  RH WIND       PRES   REMARKS
Boston         CLEAR     37  15  40 NW9       30.33R WCI  30
Worcester      CLEAR     31  10  41 NW9       30.30R WCI  23
Westfield      CLEAR     28  14  55 N5        30.35R WCI  23
Provincetown   CLEAR     40  23  50 N15G21    30.30R WCI  32
Nantucket      CLEAR     34  25  69 N6        30.29R WCI  29
$$

ANZ330-335-338-340-345-350-353-355-210300-
COASTAL MARINE OBSERVATIONS


STATION/POSITION TIME  SKY/WX   TEMP    WIND        PRES    VSBY  WAVE
                                AIR SEA DIR/SP/G                  HT/PER
                 (UTC)          (F)     (DEG/KT/KT) (MB)    (MI)  (FT/S)
NY HARB ENTRANCE 0050            44 43   20/ 16/ 21 1025.4          2/ 3
20 S FIRE ISLAND 0150            43 41   10/ 21/ 25 1025.4          3/ 4
GREAT SOUTH BAY  NOT AVBL
23 SSW MONTAUK P 0050            41 43              1026.4          2/ 8
15 E BARNEGAT LI 0130               43                N/A           2/ 3
HUDSON CANYON    0050               49              1024.7          3/ 5
KINGS POINT      0136            42 39              1026.8
EXECUTION ROCKS  NOT AVBL
CENTRAL LI SOUND 0130            40     360/ 10/ 12   N/A           1/ 2
EASTERN LI SOUND NOT AVBL
ROBBINS REEF     0136            44      10/ 17/ 19 1026.9
$$


>>>>>>>>>>>>>>>>>>>>>>>>>>>> KEY <<<<<<<<<<<<<<<<<<<<<<<<<<<
>                                                          <
>     SKY/WX - Sky Condition/Present Weather               <
>     TMP    - Temperature in Fahrenheit                   <
>     DP     - Dew Point in Fahrenheit                     <
>     RH     - Relative Humidity in Percent                <
>     WIND   - Direction (from) and Speed in MPH           <
>     PRES   - Mean Sea Level Pressure (inches of Hg)      <
>     WCI    - Wind Chill Index                            <
>     VSB    - VISIBILITY IN MILES                         <
>     HX     - HEAT INDEX                                  <
>     TC     - TEMPERATURE IN CELSIUS                      <
>     VRB    - VARIABLE WIND DIRECTION                     <
>                                                          <
>>>>>>>>>>>>>>>>>>>>>>>>>>>> KEY <<<<<<<<<<<<<<<<<<<<<<<<<<<




USA.gov is the U.S. government's official web portal to all federal, state and local government web resources and services.